This is the latest recevied weather packets stored in our database for station/object KK4KTV-13. If no packets are shown the sender has not sent any weather packets the latest 10 day(s).
| Time | Temp. | Humidity | Pressure | Rain* | Wind** | Luminosity | Snow |
|---|---|---|---|---|---|---|---|
| 1777816971 | 10.56° C | 83% | 1020.4 hPa | 0 mm | - | 470 W/m² | - |
| 1777816667 | 10° C | 89% | 1020.7 hPa | 0 mm | - | 455 W/m² | - |
| 1777816364 | 8.89° C | 96% | 1020.7 hPa | 0 mm | - | 442 W/m² | - |
| 1777816062 | 8.89° C | 99% | 1020.7 hPa | 0 mm | - | 428 W/m² | - |
| 1777815759 | 8.89° C | 99% | 1020.7 hPa | 0 mm | - | 424 W/m² | - |
| 1777815457 | 7.78° C | 99% | 1020.7 hPa | 0 mm | - | 415 W/m² | - |
| 1777815154 | 7.22° C | 99% | 1020.7 hPa | 0 mm | - | 405 W/m² | - |
| 1777814850 | 7.22° C | 99% | 1020.8 hPa | 0 mm | - | 392 W/m² | - |
| 1777814546 | 6.67° C | 99% | 1020.5 hPa | 0 mm | - | 381 W/m² | - |
| 1777814244 | 6.11° C | 99% | 1020.6 hPa | 0 mm | - | 369 W/m² | - |
| 1777813941 | 5.56° C | 99% | 1020.6 hPa | 0 mm | - | 353 W/m² | - |
| 1777813638 | 5° C | 99% | 1020.8 hPa | 0 mm | - | 341 W/m² | - |
| 1777813335 | 5° C | 99% | 1020.5 hPa | 0 mm | - | 326 W/m² | - |
| 1777813033 | 5° C | 99% | 1020.5 hPa | 0 mm | - | 314 W/m² | - |
| 1777812731 | 4.44° C | 99% | 1020.6 hPa | 0 mm | - | 300 W/m² | - |
| 1777812427 | 3.89° C | 99% | 1020.7 hPa | 0 mm | - | 285 W/m² | - |
| 1777812125 | 3.33° C | 99% | 1020.8 hPa | 0 mm | - | 265 W/m² | - |
| 1777811823 | 2.78° C | 99% | 1020.7 hPa | 0 mm | - | 224 W/m² | - |
| 1777811521 | 2.78° C | 99% | 1020.6 hPa | 0 mm | - | 171 W/m² | - |
| 1777811216 | 2.22° C | 99% | 1020.6 hPa | 0 mm | - | 145 W/m² | - |
| 1777810914 | 1.67° C | 99% | 1020.8 hPa | 0 mm | - | 116 W/m² | - |
| 1777810610 | 1.67° C | 99% | 1020.6 hPa | 0 mm | - | 121 W/m² | - |
| 1777810307 | 1.67° C | 99% | 1020.4 hPa | 0 mm | - | 120 W/m² | - |
| 1777810002 | 1.67° C | 99% | 1020.6 hPa | 0 mm | - | 114 W/m² | - |
| 1777809701 | 0.56° C | 99% | 1020.4 hPa | 0 mm | - | 91 W/m² | - |
* Rain latest hour (hover to see other rain measurements)
** Current wind speed in m/s (hover to see current wind gust speed)